FW9328 Weather Reports


time (UTC)temp
C
wind
direction
speed
KPH
gust
KPH
rain 1hr
cm
rain 24hr
cm
rain mn
cm
humidity
%
barometer
mb
20260505035546 7 187 3.2 9.7 0.08 0.46 0.46 86 1012.4
20260505035041 7 205 1.6 8.0 0.15 0.46 0.46 86 1012.4
20260505034613 7 0 1.6 11.3 0.20 0.46 0.46 87 1012.3
20260505034043 7 0 1.6 11.3 0.25 0.46 0.46 87 1012.4
20260505033543 7 180 1.6 8.0 0.33 0.46 0.46 88 1012.4
20260505033052 7 194 1.6 8.0 0.38 0.46 0.46 88 1012.5
20260505032543 8 217 1.6 9.7 0.41 0.46 0.46 87 1012.6
20260505032043 8 0 1.6 9.7 0.43 0.46 0.46 88 1012.7
20260505031555 8 209 0.0 4.8 0.43 0.46 0.46 88 1012.7
20260505031042 8 0 0.0 4.8 0.46 0.46 0.46 87 1012.5
20260505030542 8 0 0.0 6.4 0.46 0.46 0.46 87 1012.5
20260505030049 8 197 0.0 6.4 0.43 0.43 0.43 86 1012.5
20260505025542 9 217 1.6 8.0 0.38 0.38 0.38 85 1012.4
20260505025042 9 191 3.2 8.0 0.30 0.30 0.30 84 1012.3
20260505024551 10 0 1.6 6.4 0.25 0.25 0.25 84 1012.4
20260505024042 10 0 0.0 6.4 0.20 0.20 0.20 83 1012.3
20260505023542 10 0 0.0 6.4 0.13 0.13 0.13 82 1012.2
20260505023050 10 284 0.0 3.2 0.08 0.08 0.08 81 1012.2
20260505022546 10 0 0.0 3.2 0.05 0.05 0.05 80 1012.0
20260505022042 10 0 0.0 4.8 0.03 0.03 0.03 78 1011.8
20260505021549 11 0 0.0 4.8 0.03 0.03 0.03 76 1011.6
20260505021042 11 212 0.0 4.8 0.00 0.00 0.00 74 1011.5
20260505020541 11 0 0.0 3.2 0.00 0.00 0.00 73 1011.5
20260505020047 11 0 0.0 3.2 0.00 0.00 0.00 71 1011.5
20260505015541 11 293 0.0 3.2 0.00 0.00 0.00 70 1011.5
20260505015041 11 0 0.0 8.0 0.00 0.00 0.00 69 1011.5
20260505014546 11 335 0.0 8.0 0.00 0.00 0.00 69 1011.4
20260505014041 11 0 1.6 8.0 0.00 0.00 0.00 67 1011.3
20260505013542 11 335 1.6 12.9 0.00 0.00 0.00 67 1011.2
20260505013048 11 328 3.2 12.9 0.00 0.00 0.00 67 1011.1
20260505012544 12 331 3.2 12.9 0.00 0.00 0.00 65 1011.1
20260505012042 12 303 3.2 17.7 0.00 0.00 0.00 64 1011.2
20260505011607 12 9 4.8 20.9 0.00 0.00 0.00 64 1011.1
20260505011042 12 316 6.4 22.5 0.00 0.00 0.00 62 1011.1
20260505010541 13 308 9.7 22.5 0.00 0.00 0.00 58 1011.1
20260505010051 14 311 4.8 16.1 0.00 0.00 0.00 56 1011.0
20260505005542 14 341 3.2 8.0 0.00 0.00 0.00 55 1010.9
20260505005042 14 328 1.6 8.0 0.00 0.00 0.00 54 1010.8
20260505004548 14 339 0.0 6.4 0.00 0.00 0.00 54 1010.8
20260505004041 14 0 1.6 6.4 0.00 0.00 0.00 54 1010.7
20260505003541 14 338 0.0 6.4 0.00 0.00 0.00 56 1010.7
20260505003053 14 319 0.0 11.3 0.00 0.00 0.00 57 1010.8
20260505002541 14 0 1.6 11.3 0.00 0.00 0.00 56 1010.8
20260505002041 14 281 1.6 11.3 0.00 0.00 0.00 56 1010.8
20260505001603 14 0 1.6 9.7 0.00 0.00 0.00 55 1010.7
20260505001040 14 269 1.6 9.7 0.00 0.00 0.00 56 1010.6
20260505000541 14 296 0.0 11.3 0.00 0.00 0.00 57 1010.7
20260505000105 14 0 1.6 11.3 0.00 0.00 0.00 60 1010.6
20260504235542 14 305 0.0 4.8 0.00 0.00 0.00 59 1010.5
20260504235043 13 0 0.0 6.4 0.00 0.00 0.00 59 1010.4
20260504234550 13 333 0.0 8.0 0.00 0.00 0.00 58 1010.6
20260504234042 13 0 1.6 8.0 0.00 0.00 0.00 58 1010.6
20260504233542 14 340 0.0 6.4 0.00 0.00 0.00 57 1010.6
20260504233103 14 0 0.0 6.4 0.00 0.00 0.00 58 1010.6
20260504232541 13 360 1.6 6.4 0.00 0.00 0.00 57 1010.4
20260504232041 13 348 1.6 6.4 0.00 0.00 0.00 60 1010.5
20260504231546 13 0 0.0 6.4 0.00 0.00 0.00 60 1010.4
20260504231041 13 0 3.2 6.4 0.00 0.00 0.00 58 1010.3
20260504230541 13 60 0.0 3.2 0.00 0.00 0.00 62 1010.3
20260504230050 13 0 0.0 4.8 0.00 0.00 0.00 63 1010.4
20260504225542 13 0 0.0 9.7 0.00 0.00 0.00 62 1010.4
20260504225041 14 212 0.0 14.5 0.00 0.00 0.00 61 1010.4
20260504224546 14 195 3.2 20.9 0.00 0.00 0.00 54 1010.6
20260504224041 15 311 4.8 20.9 0.00 0.00 0.00 52 1010.7
20260504223542 15 51 1.6 8.0 0.00 0.00 0.00 50 1010.8
20260504223049 15 257 1.6 8.0 0.00 0.00 0.00 44 1010.7
20260504222544 16 261 1.6 8.0 0.00 0.00 0.00 45 1010.8
20260504222042 16 207 0.0 4.8 0.00 0.00 0.00 46 1010.8
20260504221546 16 0 0.0 3.2 0.00 0.00 0.00 45 1010.5
20260504221042 16 0 0.0 4.8 0.00 0.00 0.00 45 1010.3
20260504220541 16 342 0.0 8.0 0.00 0.00 0.00 45 1010.1
20260504220101 16 9 1.6 16.1 0.00 0.00 0.00 45 1009.7
20260504215543 16 33 3.2 16.1 0.00 0.00 0.00 46 1009.5
20260504215042 16 351 3.2 16.1 0.00 0.00 0.00 45 1009.3
20260504214550 16 301 4.8 25.7 0.00 0.00 0.00 45 1009.2
20260504214043 16 274 4.8 25.7 0.00 0.00 0.00 45 1009.3
20260504213544 16 342 12.9 25.7 0.00 0.00 0.00 43 1009.5
20260504213050 17 320 8.0 22.5 0.00 0.00 0.00 41 1009.6
20260504212544 17 319 8.0 33.8 0.00 0.00 0.00 41 1009.5
20260504212043 17 340 9.7 33.8 0.00 0.00 0.00 39 1009.4
20260504211546 18 351 12.9 35.4 0.00 0.00 0.00 39 1009.4
20260504211043 18 281 12.9 35.4 0.00 0.00 0.00 36 1009.4
20260504210543 18 347 14.5 35.4 0.00 0.00 0.00 37 1009.4
20260504210050 18 325 9.7 30.6 0.00 0.00 0.00 39 1009.4
20260504205544 18 329 11.3 27.4 0.00 0.00 0.00 38 1009.5
20260504205044 18 325 9.7 35.4 0.00 0.00 0.00 36 1009.5
20260504204557 20 24 16.1 35.4 0.00 0.00 0.00 31 1009.7
20260504204044 20 360 8.0 17.7 0.00 0.00 0.00 30 1009.7
20260504203543 20 360 1.6 14.5 0.00 0.00 0.00 29 1009.0
20260504203058 20 360 3.2 16.1 0.00 0.00 0.00 30 1008.9
20260504202543 20 360 4.8 17.7 0.00 0.00 0.00 31 1008.9
20260504202046 20 360 8.0 17.7 0.00 0.00 0.00 31 1008.9
20260504201553 20 360 1.6 27.4 0.00 0.00 0.00 29 1008.8
20260504201044 20 360 3.2 27.4 0.00 0.00 0.00 29 1008.8
20260504200543 20 360 9.7 27.4 0.00 0.00 0.00 28 1008.7
20260504200101 20 360 6.4 29.0 0.00 0.00 0.00 28 1008.8
20260504195543 20 360 6.4 29.0 0.00 0.00 0.00 29 1008.7
20260504195043 20 360 8.0 29.0 0.00 0.00 0.00 27 1008.7
20260504194604 21 360 4.8 29.0 0.00 0.00 0.00 27 1008.6
20260504194043 21 360 11.3 29.0 0.00 0.00 0.00 24 1008.8
20260504193543 22 229 8.0 24.1 0.00 0.00 0.00 23 1008.5
20260504193102 22 198 3.2 14.5 0.00 0.00 0.00 25 1008.5
20260504192544 22 277 3.2 11.3 0.00 0.00 0.00 25 1008.5
20260504192043 22 232 0.0 14.5 0.00 0.00 0.00 25 1008.3
20260504191608 22 0 3.2 14.5 0.00 0.00 0.00 25 1008.3
20260504191044 22 209 3.2 9.7 0.00 0.00 0.00 24 1008.3
20260504190545 21 0 0.0 4.8 0.00 0.00 0.00 25 1008.3
20260504190053 21 0 0.0 4.8 0.00 0.00 0.00 24 1008.4
20260504185615 21 227 1.6 6.4 0.00 0.00 0.00 24 1008.5
20260504185043 21 167 1.6 6.4 0.00 0.00 0.00 26 1008.4
20260504184551 21 244 1.6 12.9 0.00 0.00 0.00 25 1008.4
20260504184043 21 206 3.2 14.5 0.00 0.00 0.00 24 1008.6
20260504183542 21 254 6.4 14.5 0.00 0.00 0.00 25 1008.7
20260504183055 21 223 3.2 17.7 0.00 0.00 0.00 26 1008.8
20260504182541 21 236 4.8 17.7 0.00 0.00 0.00 25 1008.9
20260504182041 21 284 6.4 16.1 0.00 0.00 0.00 27 1009.0
20260504181601 21 257 4.8 22.5 0.00 0.00 0.00 26 1009.0
20260504181041 20 188 3.2 22.5 0.00 0.00 0.00 27 1009.2
20260504180540 20 219 6.4 20.9 0.00 0.00 0.00 28 1009.2
20260504180056 20 232 4.8 25.7 0.00 0.00 0.00 28 1009.3
20260504175543 20 223 11.3 29.0 0.00 0.00 0.00 28 1009.4
20260504175042 20 225 9.7 29.0 0.00 0.00 0.00 29 1009.5
20260504174551 20 263 8.0 29.0 0.00 0.00 0.00 29 1009.7
20260504174041 20 232 8.0 27.4 0.00 0.00 0.00 29 1009.7
20260504173541 19 213 6.4 25.7 0.00 0.00 0.00 29 1009.9
20260504173054 19 255 8.0 25.7 0.00 0.00 0.00 30 1009.9
20260504172545 18 17 8.0 20.9 0.00 0.00 0.00 31 1010.0
20260504172041 18 216 3.2 20.9 0.00 0.00 0.00 32 1010.2
20260504171558 18 242 8.0 29.0 0.00 0.00 0.00 32 1010.3
20260504171041 17 237 9.7 30.6 0.00 0.00 0.00 31 1010.3
20260504170541 17 241 8.0 30.6 0.00 0.00 0.00 31 1010.3
20260504151041 16 207 4.8 22.5 0.00 0.00 0.00 32 1010.3
20260504150543 16 246 4.8 22.5 0.00 0.00 0.00 32 1010.4
20260504141040 10 0 0.0 4.8 0.00 0.00 0.00 47 1010.7
20260504140541 10 0 0.0 1.6 0.00 0.00 0.00 51 1010.8
20260504130542 7 0 0.0 4.8 0.00 0.00 0.00 56 1010.4
20260504110547 7 0 0.0 3.2 0.00 0.00 0.00 51 1010.3
20260504100545 6 0 0.0 3.2 0.00 0.00 0.00 49 1010.6
20260504090104 6 0 0.0 1.6 0.00 0.00 0.00 52 1011.0
20260504081553 7 0 0.0 1.6 0.00 0.00 0.00 47 1011.3
20260504081041 7 0 0.0 1.6 0.00 0.00 0.00 47 1011.4
20260504080541 8 0 0.0 3.2 0.00 0.00 0.00 47 1011.4
20260504050542 15 17 3.2 9.7 0.00 0.00 0.00 30 1012.4
20260504045543 16 175 0.0 8.0 0.00 0.00 0.00 30 1011.9
20260504045040 16 0 1.6 9.7 0.00 0.00 0.00 30 1011.9
20260504044553 16 0 1.6 9.7 0.00 0.00 0.00 29 1012.0
20260504044042 16 0 1.6 8.0 0.00 0.00 0.00 29 1012.1
20260504043541 16 190 0.0 8.0 0.00 0.00 0.00 29 1012.0
20260504043051 16 177 1.6 8.0 0.00 0.00 0.00 29 1012.1
20260504042544 17 0 0.0 14.5 0.00 0.00 0.00 28 1012.1
20260504042042 17 209 1.6 14.5 0.00 0.00 0.00 28 1012.1
20260504041553 17 209 3.2 12.9 0.00 0.00 0.00 28 1012.1
20260504041041 17 214 3.2 11.3 0.00 0.00 0.00 28 1012.2
20260504040541 17 198 1.6 17.7 0.00 0.00 0.00 28 1012.2
20260504040109 17 194 3.2 17.7 0.00 0.00 0.00 28 1012.2